QPF
0.00 0.00 0.00 0.00 0.00 0.00 0.00 0.00 0.00 0.00 0.00 0.00 0.00 0.00 0.00 0.00 0.00 0.00 0.00 0.00 0.00 0.00 0.00 0.00 0.00 0.00 0.00 0.00 0.00 0.00 0.00 0.00 0.00 0.00 0.00 0.00 0.00 0.00 0.00 0.00 0.00 0.00 0.00 0.00
0.00 0.00 0.00 0.00 0.00 0.00 0.00 0.00 0.00 0.00 0.00 0.00 0.00 0.00 0.00 0.00 0.00 0.00 0.00 0.00 0.00 0.00 0.00 0.00 0.00 0.00 0.00 0.00 0.00 0.00 0.00 0.00 0.00 0.00 0.00 0.00 0.00 0.00 0.00 0.00 0.00 0.00 0.00 0.00
0.00 0.00 0.00 0.00 0.00 0.00 0.00 0.00 0.00 0.00 0.00 0.00 0.00 0.00 0.00 0.00 0.00 0.00 0.00 0.00 0.00 0.00 0.00 0.00 0.00 0.00 0.00 0.00 0.00 0.00 0.00 0.00 0.00 0.00 0.00 0.00 0.00 0.00 0.00 0.00 0.00 0.00 0.00 0.00
0.00 0.00 0.00 0.00 0.00 0.00 0.00 0.00 0.00 0.00 0.00 0.00 0.00 0.00 0.00 0.00 0.00 0.00 0.00 0.00 0.00 0.00 0.00 0.00 0.00 0.00 0.00 0.00 0.00 0.00 0.00 0.00 0.00 0.00 0.00 0.00 0.00 0.00 0.00 0.00 0.00 0.00 0.00 0.00
0.00 0.00 0.00 0.00 0.00 0.00 0.00 0.00 0.00 0.00 0.00 0.00 0.00 0.00 0.00 0.00 0.00 0.00 0.00 0.00 0.00 0.00 0.00 0.00 0.00 0.00 0.00 0.00 0.00 0.00 0.00 0.00 0.00 0.00 0.00 0.00 0.00 0.00 0.00 0.00 0.00 0.00 0.00 0.00
0.00 0.00 0.00 0.00 0.00 0.00 0.00 0.00 0.00 0.00 0.00 0.00 0.00 0.00 0.00 0.00 0.00 0.00 0.00 0.00 0.00 0.00 0.00 0.00 0.00 0.00 0.00 0.00 0.00 0.00 0.00 0.00 0.00 0.00 0.00 0.00 0.00 0.00 0.00 0.00 0.00 0.00 0.00 0.00
0.00 0.00 0.00 0.00 0.00 0.00 0.00 0.00 0.00 0.00 0.00 0.00 0.00 0.00 0.00 0.00 0.00 0.00 0.00 0.00 0.00 0.00 0.00 0.00 0.00 0.00 0.00 0.00 0.00 0.00 0.00 0.00 0.00 0.00 0.00 0.00 0.00 0.00 0.00 0.00 0.00 0.00 0.00 0.00
0.00 0.00 0.00 0.00 0.00 0.00 0.00 0.00 0.00 0.00 0.00 0.00 0.00 0.00 0.00 0.00 0.00 0.00 0.00 0.00 0.00 0.00 0.00 0.00 0.00 0.00 0.00 0.00 0.00 0.00 0.00 0.00 0.00 0.00 0.00 0.00 0.00 0.00 0.00 0.00 0.00 0.00 0.00 0.00
0.00 0.00 0.00 0.00 0.00 0.00 0.00 0.00 0.00 0.00 0.00 0.00 0.00 0.00 0.00 0.00 0.00 0.00 0.00 0.00 0.00 0.00 0.00 0.00 0.00 0.00 0.00 0.00 0.00 0.00 0.00 0.00 0.00 0.00 0.00 0.00 0.00 0.00 0.00 0.00 0.00 0.00 0.00 0.00
0.00 0.00 0.00 0.00 0.00 0.00 0.00 0.00 0.00 0.00 0.00 0.00 0.00 0.00 0.00 0.00 0.00 0.00 0.00 0.00 0.00 0.00 0.00 0.00 0.00 0.00 0.00 0.00 0.00 0.00 0.00 0.00 0.00 0.00 0.00 0.00 0.00 0.00 0.00 0.00 0.00 0.00 0.00 0.00
0.00 0.00 0.00 0.00 0.00 0.00 0.00 0.00 0.00 0.00 0.00 0.00 0.00 0.00 0.00 0.00 0.00 0.00 0.00 0.00 0.00 0.00 0.00 0.00 0.00 0.00 0.00 0.00 0.00 0.00 0.00 0.00 0.00 0.00 0.00 0.00 0.00 0.00 0.00 0.00 0.00 0.00 0.00 0.00
0.00 0.00 0.00 0.00 0.00 0.00 0.00 0.00 0.00 0.00 0.00 0.00 0.00 0.00 0.00 0.00 0.00 0.00 0.00 0.00 0.00 0.00 0.00 0.00 0.00 0.00 0.00 0.00 0.00 0.00 0.00 0.00 0.00 0.00 0.00 0.00 0.00 0.00 0.00 0.00 0.00 0.00 0.00 0.00
0.00 0.00 0.00 0.00 0.00 0.00 0.00 0.00 0.00 0.00 0.00 0.00 0.00 0.00 0.00 0.00 0.00 0.00 0.00 0.00 0.00 0.00 0.00 0.00 0.00 0.00 0.00 0.00 0.00 0.00 0.00 0.00 0.00 0.00 0.00 0.00 0.00 0.00 0.00 0.00 0.00 0.00 0.00 0.00
0.00 0.00 0.00 0.00 0.00 0.00 0.00 0.00 0.00 0.00 0.00 0.00 0.00 0.00 0.00 0.00 0.00 0.00 0.00 0.00 0.00 0.00 0.00 0.00 0.00 0.00 0.00 0.00 0.00 0.00 0.00 0.00 0.00 0.00 0.00 0.00 0.00 0.00 0.00 0.00 0.00 0.00 0.00 0.00
0.00 0.00 0.00 0.00 0.00 0.00 0.00 0.00 0.00 0.00 0.00 0.00 0.00 0.00 0.00 0.00 0.00 0.00 0.00 0.00 0.00 0.00 0.00 0.00 0.00 0.00 0.00 0.00 0.00 0.00 0.00 0.00 0.00 0.00 0.00 0.00 0.00 0.00 0.00 0.00 0.00 0.00 0.00 0.00
0.00 0.00 0.00 0.00 0.00 0.00 0.00 0.00 0.00 0.00 0.00 0.00 0.00 0.00 0.00 0.00 0.00 0.00 0.00 0.00 0.00 0.00 0.00 0.00 0.00 0.00 0.00 0.00 0.01 0.00 0.00 0.00 0.00 0.00 0.00 0.00 0.00 0.00 0.00 0.00 0.00 0.00 0.00 0.00
0.00 0.00 0.00 0.00 0.00 0.00 0.00 0.00 0.00 0.00 0.00 0.00 0.00 0.00 0.00 0.00 0.02 0.03 0.04 0.03 0.03 0.03 0.00 0.00 0.00 0.00 0.00 0.00 0.00 0.00 0.00 0.00 0.00 0.00 0.00 0.00 0.00 0.00 0.00 0.00 0.00 0.00 0.00 0.00
0.00 0.00 0.00 0.00 0.00 0.00 0.00 0.00 0.00 0.00 0.00 0.00 0.00 0.00 0.00 0.01 0.05 0.09 0.11 0.10 0.12 0.14 0.09 0.01 0.00 0.00 0.00 0.00 0.00 0.00 0.00 0.00 0.00 0.00 0.00 0.00 0.00 0.00 0.00 0.00 0.00 0.00 0.00 0.00
0.00 0.00 0.00 0.00 0.00 0.00 0.00 0.00 0.00 0.00 0.00 0.00 0.00 0.00 0.00 0.01 0.06 0.10 0.10 0.07 0.15 0.24 0.25 0.11 0.02 0.00 0.00 0.00 0.00 0.00 0.00 0.00 0.00 0.00 0.00 0.00 0.00 0.00 0.00 0.00 0.00 0.00 0.00 0.00
0.00 0.00 0.00 0.00 0.00 0.00 0.00 0.00 0.00 0.00 0.00 0.00 0.00 0.00 0.00 0.01 0.09 0.07 0.04 0.21 0.53 0.17 0.17 0.19 0.06 0.00 0.00 0.00 0.00 0.00 0.00 0.00 0.00 0.00 0.00 0.00 0.00 0.00 0.00 0.00 0.00 0.00 0.00 0.00
0.00 0.00 0.00 0.00 0.00 0.00 0.00 0.00 0.00 0.00 0.00 0.00 0.00 0.00 0.00 0.00 0.04 0.10 0.11 0.15 0.31 0.31 0.24 0.11 0.05 0.02 0.01 0.00 0.00 0.00 0.00 0.00 0.00 0.00 0.00 0.00 0.00 0.00 0.00 0.00 0.02 0.01 0.03 0.15
0.00 0.00 0.00 0.00 0.00 0.00 0.00 0.00 0.00 0.00 0.00 0.00 0.00 0.00 0.00 0.00 0.00 0.01 0.04 0.06 0.10 0.16 0.17 0.11 0.05 0.02 0.00 0.00 0.00 0.00 0.00 0.00 0.00 0.00 0.00 0.00 0.00 0.00 0.00 0.00 0.04 0.08 0.23 0.27
0.00 0.00 0.00 0.00 0.00 0.00 0.00 0.00 0.00 0.00 0.00 0.00 0.00 0.00 0.00 0.00 0.00 0.00 0.00 0.00 0.01 0.02 0.01 0.00 0.00 0.00 0.00 0.00 0.00 0.00 0.00 0.00 0.00 0.00 0.00 0.00 0.00 0.00 0.00 0.00 0.00 0.00 0.03 0.02
0.00 0.00 0.00 0.00 0.00 0.00 0.00 0.00 0.00 0.00 0.00 0.00 0.00 0.00 0.00 0.01 0.00 0.00 0.00 0.00 0.00 0.00 0.00 0.00 0.00 0.00 0.00 0.00 0.00 0.00 0.00 0.00 0.00 0.00 0.00 0.00 0.00 0.00 0.00 0.00 0.00 0.00 0.00 0.01
0.00 0.00 0.00 0.00 0.00 0.00 0.00 0.00 0.00 0.00 0.00 0.00 0.00 0.00 0.00 0.00 0.00 0.00 0.00 0.00 0.01 0.00 0.00 0.00 0.00 0.00 0.00 0.00 0.00 0.00 0.00 0.00 0.00 0.00 0.00 0.00 0.00 0.00 0.00 0.00 0.00 0.00 0.00 0.01
0.00 0.00 0.00 0.00 0.00 0.00 0.00 0.00 0.00 0.00 0.00 0.00 0.01 0.01 0.00 0.00 0.00 0.00 0.00 0.00 0.00 0.00 0.00 0.00 0.00 0.00 0.03 0.02 0.01 0.02 0.00 0.01 0.00 0.01 0.00 0.00 0.00 0.00 0.00 0.00 0.00 0.00 0.00 0.00
MSLP
1007.90 1007.43 1006.85 1006.53 1006.46 1006.38 1006.41 1006.09 1005.97 1005.77 1005.76 1006.32 1006.62 1007.21 1007.92 1008.43 1008.84 1009.19 1009.79 1010.22 1010.47 1010.76 1011.01 1011.79 1012.54 1013.19 1013.79 1014.35 1014.89 1015.43 1015.94 1016.27 1016.72 1017.07 1017.30 1017.46 1017.45 1017.60 1017.69 1017.58 1017.63 1017.67 1017.66 1017.71
1007.53 1006.88 1006.71 1006.46 1006.29 1006.26 1005.91 1005.48 1005.15 1005.65 1005.83 1006.44 1006.75 1006.85 1007.42 1007.86 1007.97 1008.17 1008.86 1009.49 1009.77 1010.09 1010.55 1011.28 1011.99 1012.58 1013.05 1013.56 1014.21 1014.89 1015.41 1015.97 1016.35 1016.72 1016.98 1017.22 1017.38 1017.42 1017.43 1017.45 1017.60 1017.60 1017.41 1017.52
1006.75 1006.54 1006.56 1006.41 1005.79 1005.50 1005.25 1005.01 1004.96 1005.35 1006.14 1006.52 1006.47 1006.32 1006.71 1007.34 1007.86 1008.28 1008.62 1008.79 1009.15 1009.44 1009.72 1010.50 1011.32 1011.73 1012.35 1012.89 1013.43 1014.01 1014.73 1015.46 1015.97 1016.39 1016.91 1017.21 1017.43 1017.47 1017.41 1017.43 1017.47 1017.24 1017.27 1017.32
1006.54 1006.43 1006.23 1006.03 1005.49 1005.27 1004.76 1004.96 1004.96 1005.24 1005.33 1005.79 1006.31 1005.54 1005.98 1006.51 1007.03 1007.46 1007.84 1008.23 1008.45 1008.83 1009.25 1009.63 1010.47 1011.04 1011.51 1011.98 1012.84 1013.58 1014.33 1015.03 1015.66 1016.20 1016.59 1016.77 1016.79 1016.69 1016.65 1016.89 1017.11 1017.12 1017.22 1017.44
1006.34 1006.23 1006.07 1005.62 1005.08 1005.08 1004.79 1004.90 1005.02 1005.20 1005.25 1005.53 1005.60 1005.54 1005.20 1005.83 1005.98 1006.18 1006.59 1007.05 1007.61 1008.16 1008.53 1008.93 1009.72 1010.12 1010.54 1011.49 1012.15 1012.95 1013.91 1014.63 1015.09 1015.69 1016.08 1016.35 1016.47 1016.35 1016.57 1016.71 1016.93 1017.14 1017.43 1017.55
1006.26 1006.28 1005.95 1005.19 1004.93 1004.85 1004.88 1004.83 1004.98 1005.20 1005.00 1004.78 1005.33 1005.05 1003.67 1004.32 1004.13 1004.66 1005.65 1006.00 1006.58 1007.35 1007.95 1008.39 1008.91 1009.62 1010.30 1011.07 1011.90 1012.60 1013.48 1014.14 1014.78 1015.28 1015.58 1015.99 1016.09 1016.30 1016.40 1016.54 1016.67 1017.04 1017.34 1017.54
1005.91 1005.46 1005.16 1005.03 1004.78 1004.90 1004.80 1004.34 1004.30 1004.46 1004.56 1004.45 1005.12 1004.63 1002.97 1002.96 1003.16 1003.40 1004.10 1004.78 1005.70 1006.53 1007.38 1007.80 1008.47 1009.21 1009.97 1010.58 1011.41 1012.16 1013.07 1013.53 1014.16 1014.71 1015.11 1015.49 1015.83 1016.08 1016.14 1016.21 1016.46 1016.83 1017.05 1017.22
1005.80 1005.19 1004.91 1004.76 1004.45 1004.30 1004.63 1004.22 1004.16 1004.21 1004.51 1004.48 1004.84 1003.67 1002.40 1002.51 1002.61 1002.96 1003.30 1003.97 1005.30 1005.99 1006.58 1007.22 1007.83 1008.51 1009.23 1009.91 1010.74 1011.50 1012.34 1012.95 1013.49 1014.01 1014.42 1014.89 1015.33 1015.57 1015.70 1015.98 1016.21 1016.42 1016.54 1016.51
1005.93 1005.18 1004.78 1004.74 1004.53 1004.66 1004.92 1004.79 1004.95 1004.69 1005.61 1004.69 1004.08 1003.22 1002.66 1002.53 1002.55 1002.72 1003.10 1003.79 1004.47 1005.05 1005.85 1006.64 1007.25 1008.03 1008.62 1009.31 1010.04 1010.67 1011.41 1012.15 1012.73 1013.14 1013.81 1014.28 1014.78 1015.15 1015.21 1015.54 1015.86 1015.99 1016.27 1016.25
1006.05 1005.48 1004.95 1004.67 1004.81 1005.07 1004.82 1005.35 1005.11 1004.82 1004.74 1004.39 1004.08 1003.71 1003.09 1003.10 1003.34 1003.41 1003.44 1003.58 1004.03 1004.58 1005.36 1006.16 1006.98 1007.46 1008.01 1008.59 1009.20 1010.03 1010.65 1011.15 1011.56 1012.35 1013.01 1013.52 1013.96 1014.35 1014.71 1015.15 1015.38 1015.56 1015.84 1016.11
1006.21 1005.72 1005.02 1004.88 1005.29 1005.41 1005.28 1005.14 1005.60 1005.49 1005.51 1004.77 1004.61 1004.01 1004.93 1004.90 1004.82 1004.59 1004.09 1004.15 1004.03 1004.13 1004.60 1005.39 1006.24 1007.00 1007.52 1008.03 1008.73 1009.29 1009.99 1010.58 1011.13 1011.70 1012.26 1012.82 1013.17 1013.57 1014.10 1014.54 1014.78 1015.08 1015.42 1015.73
1006.45 1005.78 1005.33 1005.72 1006.07 1006.15 1005.86 1005.76 1005.53 1005.01 1005.76 1006.06 1005.74 1005.15 1005.77 1005.96 1005.76 1005.53 1004.85 1004.47 1004.39 1004.57 1004.77 1005.15 1005.79 1006.64 1007.22 1007.56 1008.22 1008.84 1009.38 1009.91 1010.28 1010.89 1011.69 1012.13 1012.61 1013.05 1013.31 1013.84 1014.16 1014.55 1014.86 1015.12
1006.62 1006.31 1005.88 1005.89 1005.96 1006.04 1006.03 1006.45 1006.48 1006.07 1006.16 1006.21 1005.84 1005.10 1005.77 1006.58 1006.36 1006.18 1005.60 1004.94 1004.58 1004.49 1004.91 1005.32 1005.55 1006.13 1006.84 1007.38 1007.87 1008.53 1009.02 1009.21 1009.66 1010.39 1010.83 1011.34 1011.83 1012.22 1012.39 1012.80 1013.31 1013.74 1014.02 1014.38
1006.98 1006.73 1006.05 1005.67 1005.82 1006.15 1006.44 1006.79 1006.96 1006.42 1006.17 1006.58 1006.35 1005.79 1005.85 1007.02 1007.32 1006.90 1006.56 1005.65 1004.84 1004.56 1004.89 1005.29 1005.77 1006.09 1006.47 1006.96 1007.54 1008.12 1008.42 1008.77 1009.28 1009.75 1010.27 1010.60 1010.87 1011.15 1011.32 1011.73 1012.42 1012.78 1013.13 1013.53
1007.20 1006.78 1006.94 1006.77 1006.69 1006.67 1006.81 1006.97 1007.13 1006.94 1007.24 1007.12 1007.30 1007.20 1007.42 1008.52 1008.82 1008.66 1008.09 1006.92 1005.85 1005.47 1005.36 1005.57 1005.86 1006.11 1006.83 1007.35 1007.59 1007.98 1008.35 1008.57 1008.83 1009.28 1009.64 1009.68 1009.95 1010.46 1010.91 1011.26 1011.51 1011.84 1012.23 1012.59
1007.81 1007.56 1007.51 1007.34 1007.39 1007.49 1007.36 1007.59 1007.67 1007.66 1007.84 1007.88 1007.90 1007.86 1008.98 1009.59 1009.55 1009.67 1009.30 1008.55 1007.69 1007.10 1006.71 1006.47 1006.52 1006.51 1006.61 1006.88 1007.05 1007.34 1007.82 1008.24 1008.78 1008.96 1008.87 1009.18 1009.55 1009.90 1010.16 1010.51 1010.84 1011.20 1011.40 1011.95
1008.54 1008.02 1007.90 1007.79 1008.15 1008.10 1008.11 1007.96 1008.19 1008.27 1008.34 1008.28 1008.05 1008.73 1009.71 1010.24 1010.65 1010.84 1010.77 1010.11 1009.66 1008.99 1008.25 1007.34 1007.10 1007.03 1006.75 1006.81 1006.93 1006.83 1007.23 1007.84 1008.22 1008.45 1008.73 1008.97 1009.22 1009.40 1009.44 1009.66 1010.03 1010.13 1010.39 1011.29
1009.09 1008.80 1008.58 1008.34 1008.69 1008.57 1008.43 1008.72 1008.70 1008.59 1008.71 1008.97 1009.24 1009.73 1010.41 1011.11 1011.59 1011.95 1012.14 1011.50 1011.38 1010.42 1010.93 1008.96 1008.05 1008.02 1007.49 1006.90 1006.73 1006.63 1007.00 1007.58 1007.93 1008.20 1008.40 1008.61 1008.73 1008.71 1008.87 1009.12 1009.37 1009.72 1010.24 1010.94
1009.87 1009.35 1009.11 1009.00 1008.79 1008.97 1008.91 1009.15 1009.22 1009.06 1008.85 1009.37 1009.88 1010.35 1010.87 1011.18 1011.54 1012.10 1013.02 1012.70 1012.49 1012.33 1011.50 1010.89 1010.61 1009.43 1008.91 1007.86 1007.66 1007.41 1007.12 1007.47 1007.75 1007.86 1008.02 1008.18 1008.23 1008.17 1008.32 1008.55 1008.85 1009.40 1010.00 1010.74
1010.30 1010.07 1009.43 1009.64 1008.94 1008.67 1009.22 1009.73 1009.97 1009.81 1009.32 1010.01 1010.51 1010.77 1011.16 1011.35 1011.39 1012.30 1012.77 1013.14 1012.90 1012.28 1011.72 1009.59 1011.91 1010.92 1010.27 1008.75 1008.48 1008.33 1008.06 1007.73 1007.88 1007.97 1007.81 1007.78 1007.92 1007.98 1008.18 1008.48 1008.82 1009.29 1009.82 1010.71
1010.49 1010.27 1009.82 1009.70 1009.34 1009.41 1009.87 1010.12 1010.34 1010.26 1010.80 1010.67 1010.93 1011.22 1011.36 1011.46 1011.77 1012.14 1012.50 1012.60 1012.98 1012.23 1011.92 1012.35 1013.53 1012.80 1010.26 1009.87 1009.20 1008.92 1009.01 1008.64 1008.42 1008.21 1008.22 1008.14 1007.84 1007.97 1008.12 1008.46 1008.68 1009.12 1009.97 1010.92
1011.04 1010.73 1010.36 1010.41 1009.90 1010.03 1010.37 1010.51 1010.52 1010.81 1010.83 1011.03 1011.31 1011.49 1011.59 1011.66 1011.77 1011.77 1011.92 1012.21 1012.25 1012.62 1010.91 1011.78 1013.05 1011.84 1009.00 1010.07 1010.11 1009.67 1008.98 1009.33 1009.06 1008.79 1008.60 1008.43 1008.41 1008.50 1008.84 1009.29 1009.62 1009.79 1010.08 1010.70
1011.76 1011.67 1011.19 1010.94 1010.31 1010.61 1010.82 1010.73 1010.84 1011.06 1011.04 1011.02 1011.32 1011.42 1011.39 1011.23 1011.16 1011.34 1011.33 1011.44 1011.63 1011.59 1011.45 1011.25 1011.16 1010.29 1010.50 1010.51 1011.09 1010.04 1009.21 1009.27 1009.24 1009.26 1008.87 1008.93 1009.23 1009.02 1009.40 1009.92 1010.04 1010.51 1010.75 1010.90
1012.04 1012.19 1011.52 1011.29 1010.91 1010.74 1010.75 1010.83 1010.98 1010.91 1010.91 1010.93 1011.03 1011.01 1010.90 1010.54 1010.41 1010.39 1010.46 1010.54 1010.60 1010.72 1010.83 1010.61 1010.42 1010.94 1011.06 1010.36 1009.76 1009.39 1009.14 1009.11 1009.03 1009.53 1009.56 1009.25 1009.45 1009.67 1009.99 1010.43 1010.72 1010.93 1011.10 1011.34
1012.15 1012.21 1011.54 1011.06 1010.63 1010.55 1010.79 1010.84 1010.76 1010.56 1010.67 1010.66 1010.51 1010.38 1010.28 1010.09 1009.76 1009.59 1009.48 1009.66 1009.83 1010.15 1010.29 1010.34 1010.22 1009.91 1009.45 1009.29 1009.02 1009.47 1009.06 1008.95 1008.95 1009.36 1009.91 1010.14 1009.95 1010.31 1010.51 1011.17 1011.38 1011.41 1011.40 1011.54
1011.57 1011.08 1010.98 1010.40 1010.75 1010.86 1010.73 1010.75 1010.71 1010.51 1010.33 1010.22 1010.16 1010.07 1010.02 1009.92 1009.48 1009.11 1008.72 1008.63 1008.90 1008.92 1008.97 1009.09 1009.16 1008.75 1008.56 1008.89 1009.54 1009.48 1009.33 1008.87 1009.16 1009.96 1009.91 1010.10 1010.38 1010.59 1010.54 1011.14 1011.66 1011.85 1011.80 1011.94
Thickness
5813 5806 5801 5814 5816 5814 5806 5803 5802 5817 5832 5820 5814 5808 5806 5810 5809 5805 5801 5800 5801 5801 5808 5807 5805 5804 5801 5798 5795 5793 5790 5789 5787 5784 5781 5779 5779 5780 5779 5779 5779 5779 5781 5782
5803 5798 5815 5819 5816 5808 5809 5808 5816 5820 5826 5819 5811 5809 5814 5814 5815 5817 5810 5807 5807 5808 5809 5807 5804 5805 5805 5803 5800 5796 5794 5792 5790 5788 5786 5784 5782 5782 5782 5781 5781 5782 5784 5784
5798 5809 5815 5811 5815 5813 5816 5816 5819 5815 5814 5818 5812 5807 5810 5816 5818 5818 5818 5818 5816 5814 5814 5811 5807 5808 5809 5806 5805 5803 5800 5795 5793 5791 5787 5783 5781 5781 5782 5782 5784 5785 5786 5787
5804 5814 5811 5811 5811 5818 5811 5825 5824 5818 5814 5798 5813 5801 5805 5814 5811 5814 5817 5818 5818 5819 5820 5820 5814 5812 5812 5814 5812 5808 5804 5799 5795 5792 5788 5785 5783 5782 5789 5789 5788 5788 5788 5786
5801 5805 5804 5805 5816 5822 5817 5827 5821 5819 5811 5806 5806 5803 5818 5813 5809 5816 5822 5824 5825 5825 5825 5823 5819 5821 5823 5819 5816 5813 5807 5801 5799 5795 5793 5789 5786 5790 5791 5791 5789 5788 5786 5785
5806 5816 5815 5820 5826 5827 5828 5821 5815 5813 5812 5797 5798 5806 5826 5818 5828 5830 5831 5833 5833 5830 5830 5830 5831 5828 5824 5824 5818 5814 5807 5803 5800 5798 5796 5792 5790 5790 5790 5790 5789 5788 5787 5785
5799 5810 5822 5825 5817 5821 5819 5819 5795 5790 5791 5794 5800 5802 5831 5847 5850 5850 5842 5841 5840 5837 5833 5833 5830 5828 5826 5824 5821 5817 5809 5805 5804 5801 5798 5796 5795 5794 5792 5793 5791 5789 5787 5786
5779 5785 5810 5823 5822 5818 5815 5822 5799 5769 5781 5796 5799 5806 5838 5858 5863 5860 5860 5855 5844 5841 5840 5839 5838 5835 5832 5829 5825 5821 5814 5809 5808 5805 5803 5801 5800 5798 5798 5797 5795 5793 5792 5791
5777 5786 5815 5817 5826 5824 5808 5807 5816 5796 5777 5791 5806 5830 5850 5859 5859 5858 5857 5853 5848 5848 5846 5842 5842 5839 5836 5833 5830 5826 5821 5815 5812 5812 5808 5805 5803 5800 5801 5799 5798 5797 5794 5794
5794 5780 5805 5815 5823 5820 5820 5814 5804 5801 5776 5774 5801 5805 5824 5843 5844 5850 5851 5853 5853 5852 5850 5848 5843 5843 5841 5839 5838 5833 5830 5824 5821 5817 5814 5811 5809 5807 5806 5803 5801 5800 5798 5795
5797 5794 5799 5811 5801 5799 5810 5810 5797 5801 5788 5784 5779 5808 5823 5825 5834 5836 5849 5851 5856 5858 5856 5854 5849 5847 5843 5843 5839 5837 5834 5830 5824 5821 5818 5814 5812 5812 5809 5806 5805 5803 5800 5797
5798 5798 5783 5786 5802 5806 5805 5800 5806 5801 5781 5773 5781 5805 5822 5823 5833 5839 5845 5852 5856 5855 5856 5856 5854 5849 5845 5844 5841 5837 5837 5834 5832 5828 5821 5817 5815 5813 5813 5809 5808 5805 5802 5800
5797 5785 5771 5779 5797 5805 5799 5795 5790 5797 5793 5776 5782 5807 5825 5821 5827 5834 5840 5849 5855 5856 5853 5852 5854 5850 5846 5844 5842 5838 5837 5838 5836 5831 5827 5823 5819 5817 5818 5816 5813 5811 5808 5804
5793 5780 5783 5781 5786 5795 5786 5787 5785 5794 5790 5778 5787 5803 5821 5811 5812 5825 5832 5846 5854 5855 5853 5850 5847 5847 5849 5846 5843 5840 5840 5841 5838 5835 5831 5828 5826 5825 5826 5824 5819 5817 5814 5809
5790 5774 5773 5777 5783 5786 5785 5785 5782 5783 5777 5776 5777 5783 5801 5796 5797 5805 5818 5835 5844 5847 5848 5848 5846 5845 5841 5839 5839 5838 5838 5839 5839 5835 5833 5833 5833 5830 5827 5825 5823 5821 5819 5814
5780 5765 5769 5767 5774 5773 5774 5775 5775 5775 5770 5769 5773 5780 5788 5789 5797 5796 5803 5814 5822 5828 5835 5839 5838 5840 5841 5840 5841 5842 5840 5838 5837 5835 5836 5837 5834 5831 5829 5828 5825 5822 5821 5816
5762 5763 5758 5751 5756 5761 5754 5771 5767 5764 5766 5769 5769 5774 5775 5774 5774 5778 5781 5795 5799 5807 5817 5829 5832 5834 5838 5839 5841 5842 5842 5841 5837 5835 5834 5834 5832 5830 5831 5831 5829 5828 5825 5818
5753 5750 5748 5743 5744 5721 5757 5765 5765 5763 5763 5763 5763 5762 5762 5761 5764 5766 5767 5774 5778 5790 5786 5806 5819 5822 5829 5838 5841 5845 5841 5836 5835 5834 5833 5833 5833 5833 5832 5831 5829 5826 5821 5813
5746 5746 5733 5732 5733 5739 5747 5752 5752 5752 5757 5760 5753 5752 5751 5757 5759 5755 5753 5759 5763 5769 5774 5776 5782 5801 5809 5822 5828 5832 5836 5834 5831 5831 5831 5832 5833 5834 5833 5830 5827 5822 5816 5809
5740 5739 5740 5722 5724 5720 5738 5743 5748 5749 5740 5749 5744 5741 5739 5741 5735 5738 5747 5746 5752 5761 5764 5766 5760 5779 5787 5806 5813 5816 5820 5826 5825 5828 5831 5832 5831 5830 5828 5825 5820 5815 5810 5800
5728 5727 5727 5723 5725 5730 5737 5740 5740 5720 5724 5736 5734 5730 5729 5726 5732 5739 5741 5742 5740 5747 5748 5745 5732 5745 5772 5789 5798 5799 5802 5809 5816 5822 5823 5824 5826 5824 5823 5818 5816 5811 5801 5790
5721 5721 5722 5714 5714 5710 5734 5731 5722 5726 5730 5727 5724 5722 5718 5719 5723 5729 5733 5732 5736 5731 5743 5739 5730 5731 5770 5773 5779 5787 5792 5798 5803 5808 5810 5811 5811 5812 5808 5801 5798 5796 5792 5785
5712 5719 5718 5719 5721 5725 5726 5725 5728 5725 5722 5722 5717 5716 5716 5717 5719 5722 5724 5728 5731 5734 5735 5739 5745 5759 5757 5756 5761 5771 5781 5785 5790 5789 5793 5795 5793 5795 5792 5785 5783 5778 5776 5775
5712 5709 5714 5712 5717 5719 5722 5724 5722 5722 5718 5719 5715 5715 5716 5717 5721 5722 5723 5725 5728 5730 5731 5737 5748 5743 5742 5757 5765 5771 5771 5774 5778 5773 5772 5779 5778 5776 5775 5770 5767 5765 5762 5759
5711 5706 5709 5711 5720 5720 5718 5717 5717 5718 5716 5714 5714 5716 5717 5719 5722 5724 5726 5726 5729 5730 5732 5736 5738 5744 5752 5758 5763 5758 5762 5766 5766 5765 5760 5758 5761 5758 5757 5753 5753 5752 5751 5749
5714 5714 5709 5710 5714 5710 5711 5714 5715 5713 5712 5712 5709 5711 5714 5715 5719 5725 5730 5736 5735 5736 5738 5739 5739 5745 5750 5749 5743 5740 5747 5755 5754 5746 5749 5748 5745 5745 5749 5746 5741 5734 5735 5732